Retour au catalogue

ONEWEB-0642

ActifCommunicationsPO
NORAD 55806·PAYLOAD·🇬🇧 United Kingdom

Lancé Mar 9, 2023 depuis Cape Canaveral Space Force Station

Loading…

Prochains Passages (prochaines 24 heures)

TLE

FraisSource: CelesTrak SupGP

Époque: Sep 14, 2026, 17:42 UTC

1 55806C 23029L   26257.73765463 -.00002097  00000+0 -52456-2 0  2573
2 55806  87.9101 287.1364 0001742  69.3021  44.5200 13.19725464    16

Suivez ONEWEB-0642 en temps réel avec AllMySat

Download on the App Store